A/2019 K6

Japanese version
Home page
Updated on July 4, 2019

---------------------------------------------------------------------

* Profile

Discovery Date May 31, 2019
Magnitude 21.1 mag
Discoverer Pan-STARRS 2 telescope (Haleakala)

* Orbital Elements

Epoch 2020 May 31.0 TT = JDT 2459000.5                                          
T 2020 May 20.25963 TT                                  MPCLINUX                
q   3.9281236            (2000.0)            P               Q                  
z  +0.0007453      Peri.  187.63293     -0.78653695     -0.35782932             
 +/-0.000035       Node    42.94242     -0.52035205     +0.82292041             
e   0.9970723      Incl.  132.37199     -0.33255582     -0.44131641             
From 159 observations 2019 May 7-June 30, mean residual 0".3.                   

* Magnitudes Graph

        H = 13.0  G = 0.15

---------------------------------------------------------------------

The orbital elements are published on M.P.E.C. 2019-N10.
The magnitudes graphs are made with Comet for Windows.

---------------------------------------------------------------------

Copyright(C) Seiichi Yoshida (comet@aerith.net). All rights reserved.